HK36E SKBO-SKPS

Flight info

Callsign HK36E
Flight time 1h 12m
Altitude 26000
Route LIXAG4U LIXAG ISADI PPN PAKEX PAKEX1A
Aircraft BE20/M-SDFGRWY/LB1

Departure

Time 2026-04-30 19:24
Airport El Dorado International Airport (SKBO)

Arrival

Time 2026-04-30 20:37
Airport Antonio Nariño Airport (SKPS)
Time Latitude Longitude Altitude Speed Heading
2026-04-30 19:10 4.70636 -74.14839 8356 ft 0 kts 36°
2026-04-30 19:14 4.70638 -74.14834 8356 ft 3 kts 91°
2026-04-30 19:15 4.70617 -74.14793 8356 ft 10 kts 78°
2026-04-30 19:15 4.70677 -74.14656 8357 ft 15 kts 128°
2026-04-30 19:15 4.70612 -74.14571 8357 ft 14 kts 127°
2026-04-30 19:16 4.70547 -74.14487 8357 ft 11 kts 126°
2026-04-30 19:16 4.70500 -74.14456 8357 ft 11 kts 184°
2026-04-30 19:16 4.70326 -74.14580 8357 ft 14 kts 217°
2026-04-30 19:17 4.70236 -74.14649 8357 ft 16 kts 218°
2026-04-30 19:17 4.70050 -74.14787 8357 ft 16 kts 216°
2026-04-30 19:17 4.69950 -74.14863 8357 ft 15 kts 217°
2026-04-30 19:18 4.69954 -74.14976 8357 ft 15 kts 307°
2026-04-30 19:18 4.70070 -74.15129 8357 ft 24 kts 307°
2026-04-30 19:18 4.70139 -74.15218 8357 ft 16 kts 308°
2026-04-30 19:19 4.70222 -74.15326 8356 ft 24 kts 307°
2026-04-30 19:19 4.70305 -74.15436 8356 ft 14 kts 308°
2026-04-30 19:19 4.70432 -74.15598 8356 ft 16 kts 309°
2026-04-30 19:20 4.70518 -74.15707 8356 ft 24 kts 308°
2026-04-30 19:20 4.70617 -74.15828 8356 ft 17 kts 309°
2026-04-30 19:20 4.70793 -74.16058 8356 ft 20 kts 308°
2026-04-30 19:21 4.70890 -74.16186 8356 ft 21 kts 307°
2026-04-30 19:21 4.71067 -74.16421 8356 ft 25 kts 307°
2026-04-30 19:22 4.71244 -74.16653 8356 ft 21 kts 307°
2026-04-30 19:22 4.71167 -74.16823 8355 ft 9 kts 214°
2026-04-30 19:23 4.70931 -74.16760 8355 ft 36 kts 128°
2026-04-30 19:24 4.70198 -74.15787 8402 ft 130 kts 128°
2026-04-30 19:24 4.69600 -74.15019 8869 ft 147 kts 130°
2026-04-30 19:24 4.68012 -74.13494 9872 ft 173 kts 162°
2026-04-30 19:25 4.65420 -74.15797 11252 ft 201 kts 238°
2026-04-30 19:26 4.63768 -74.17837 12447 ft 184 kts 229°
2026-04-30 19:26 4.62221 -74.19895 13359 ft 185 kts 227°
2026-04-30 19:26 4.61557 -74.20999 13738 ft 190 kts 249°
2026-04-30 19:27 4.61019 -74.23638 14475 ft 192 kts 254°
2026-04-30 19:27 4.60503 -74.26291 15344 ft 193 kts 254°
2026-04-30 19:28 4.60012 -74.27518 15769 ft 188 kts 230°
2026-04-30 19:28 4.58249 -74.29425 16631 ft 188 kts 220°
2026-04-30 19:29 4.56444 -74.31290 17516 ft 187 kts 221°
2026-04-30 19:29 4.55536 -74.32228 17854 ft 191 kts 220°
2026-04-30 19:30 4.52640 -74.34914 19099 ft 184 kts 202°
2026-04-30 19:30 4.50408 -74.36248 19793 ft 189 kts 206°
2026-04-30 19:31 4.48156 -74.37594 20575 ft 189 kts 205°
2026-04-30 19:31 4.47022 -74.38270 20971 ft 189 kts 205°
2026-04-30 19:31 4.44761 -74.39620 21725 ft 190 kts 205°
2026-04-30 19:32 4.43628 -74.40297 22146 ft 189 kts 205°
2026-04-30 19:32 4.42495 -74.40973 22537 ft 190 kts 205°
2026-04-30 19:32 4.41358 -74.41652 22929 ft 189 kts 205°
2026-04-30 19:32 4.40227 -74.42327 23323 ft 190 kts 206°
2026-04-30 19:33 4.39090 -74.43005 23661 ft 191 kts 206°
2026-04-30 19:33 4.37954 -74.43684 24004 ft 189 kts 206°
2026-04-30 19:33 4.36825 -74.44358 24376 ft 189 kts 207°
2026-04-30 19:33 4.35721 -74.45018 24864 ft 176 kts 207°
2026-04-30 19:34 4.34667 -74.45646 25181 ft 179 kts 207°
2026-04-30 19:34 4.33585 -74.46291 25447 ft 183 kts 208°
2026-04-30 19:34 4.31364 -74.47616 25965 ft 192 kts 208°
2026-04-30 19:35 4.30157 -74.48334 25975 ft 211 kts 208°
2026-04-30 19:35 4.28839 -74.49120 25974 ft 229 kts 209°
2026-04-30 19:35 4.27426 -74.49964 25926 ft 243 kts 209°
2026-04-30 19:35 4.25937 -74.50853 25930 ft 255 kts 209°
2026-04-30 19:36 4.24393 -74.51775 25922 ft 264 kts 209°
2026-04-30 19:36 4.22792 -74.52730 25918 ft 271 kts 209°
2026-04-30 19:36 4.20058 -74.54361 25954 ft 279 kts 209°
2026-04-30 19:37 4.18383 -74.55360 25952 ft 282 kts 209°
2026-04-30 19:37 4.16691 -74.56370 25955 ft 284 kts 209°
2026-04-30 19:37 4.14437 -74.57714 25948 ft 286 kts 209°
2026-04-30 19:37 4.12727 -74.58734 25952 ft 286 kts 209°
2026-04-30 19:38 4.11568 -74.59425 25966 ft 287 kts 209°
2026-04-30 19:38 4.09852 -74.60449 25967 ft 287 kts 209°
2026-04-30 19:38 4.08133 -74.61474 25970 ft 288 kts 209°
2026-04-30 19:38 4.06412 -74.62500 25969 ft 288 kts 209°
2026-04-30 19:39 4.04687 -74.63529 25970 ft 289 kts 209°
2026-04-30 19:39 4.02984 -74.64544 25912 ft 288 kts 208°
2026-04-30 19:39 4.01239 -74.65584 25910 ft 288 kts 208°
2026-04-30 19:39 3.99538 -74.66598 25911 ft 288 kts 208°
2026-04-30 19:40 3.97819 -74.67623 25912 ft 288 kts 210°
2026-04-30 19:40 3.96096 -74.68650 25929 ft 288 kts 210°
2026-04-30 19:40 3.94378 -74.69674 25929 ft 288 kts 208°
2026-04-30 19:40 3.92654 -74.70702 25929 ft 288 kts 209°
2026-04-30 19:41 3.90936 -74.71726 25928 ft 287 kts 210°
2026-04-30 19:41 3.89216 -74.72751 25930 ft 288 kts 209°
2026-04-30 19:41 3.87529 -74.73822 25929 ft 288 kts 218°
2026-04-30 19:41 3.86138 -74.75267 25937 ft 290 kts 232°
2026-04-30 19:42 3.85007 -74.76944 25941 ft 290 kts 235°
2026-04-30 19:42 3.83886 -74.78624 25898 ft 290 kts 235°
2026-04-30 19:42 3.82759 -74.80304 25907 ft 291 kts 235°
2026-04-30 19:42 3.81630 -74.81987 25907 ft 291 kts 235°
2026-04-30 19:43 3.80501 -74.83672 25904 ft 292 kts 234°
2026-04-30 19:43 3.79371 -74.85361 25905 ft 291 kts 235°
2026-04-30 19:43 3.78242 -74.87046 25909 ft 292 kts 235°
2026-04-30 19:44 3.75983 -74.90416 25908 ft 292 kts 234°
2026-04-30 19:44 3.74851 -74.92105 25908 ft 292 kts 234°
2026-04-30 19:44 3.73719 -74.93795 25907 ft 292 kts 234°
2026-04-30 19:44 3.72588 -74.95483 25908 ft 292 kts 235°
2026-04-30 19:45 3.71458 -74.97170 25909 ft 292 kts 235°
2026-04-30 19:45 3.70325 -74.98859 25907 ft 292 kts 234°
2026-04-30 19:45 3.69194 -75.00546 25908 ft 292 kts 234°
2026-04-30 19:45 3.68061 -75.02237 25916 ft 292 kts 235°
2026-04-30 19:46 3.66929 -75.03926 25915 ft 292 kts 235°
2026-04-30 19:46 3.65797 -75.05615 25921 ft 292 kts 235°
2026-04-30 19:46 3.64664 -75.07303 25890 ft 292 kts 234°
2026-04-30 19:46 3.63533 -75.08991 25891 ft 292 kts 234°
2026-04-30 19:47 3.62401 -75.10679 25891 ft 292 kts 235°
2026-04-30 19:47 3.61651 -75.11798 25891 ft 292 kts 235°
2026-04-30 19:47 3.60135 -75.14058 25892 ft 292 kts 234°
2026-04-30 19:47 3.59002 -75.15748 25890 ft 293 kts 235°
2026-04-30 19:48 3.57868 -75.17440 25889 ft 292 kts 235°
2026-04-30 19:48 3.56735 -75.19129 25893 ft 292 kts 235°
2026-04-30 19:48 3.55600 -75.20821 25893 ft 293 kts 234°
2026-04-30 19:48 3.54467 -75.22510 25890 ft 293 kts 234°
2026-04-30 19:49 3.53346 -75.24181 25890 ft 293 kts 234°
2026-04-30 19:49 3.51076 -75.27565 25891 ft 293 kts 234°
2026-04-30 19:49 3.49941 -75.29257 25892 ft 293 kts 235°
2026-04-30 19:50 3.48806 -75.30949 25892 ft 293 kts 234°
2026-04-30 19:50 3.47670 -75.32642 25892 ft 293 kts 235°
2026-04-30 19:50 3.46533 -75.34337 25889 ft 293 kts 235°
2026-04-30 19:50 3.45398 -75.36028 25920 ft 293 kts 234°
2026-04-30 19:51 3.44263 -75.37719 25920 ft 293 kts 235°
2026-04-30 19:51 3.43127 -75.39412 25919 ft 293 kts 234°
2026-04-30 19:51 3.41992 -75.41103 25919 ft 293 kts 234°
2026-04-30 19:51 3.40856 -75.42796 25919 ft 293 kts 235°
2026-04-30 19:52 3.39722 -75.44486 25909 ft 293 kts 235°
2026-04-30 19:52 3.38586 -75.46178 25907 ft 293 kts 234°
2026-04-30 19:52 3.37451 -75.47868 25907 ft 293 kts 235°
2026-04-30 19:52 3.36315 -75.49561 25907 ft 292 kts 234°
2026-04-30 19:53 3.35182 -75.51249 25952 ft 292 kts 235°
2026-04-30 19:53 3.34048 -75.52938 25950 ft 293 kts 234°
2026-04-30 19:53 3.32913 -75.54627 25951 ft 292 kts 234°
2026-04-30 19:53 3.31779 -75.56317 25951 ft 293 kts 235°
2026-04-30 19:54 3.30645 -75.58006 25950 ft 292 kts 234°
2026-04-30 19:54 3.29511 -75.59695 25952 ft 292 kts 235°
2026-04-30 19:54 3.28379 -75.61381 25952 ft 292 kts 235°
2026-04-30 19:54 3.27247 -75.63066 25951 ft 293 kts 234°
2026-04-30 19:55 3.26111 -75.64758 26016 ft 293 kts 235°
2026-04-30 19:55 3.24975 -75.66449 26025 ft 292 kts 235°
2026-04-30 19:55 3.23841 -75.68139 26022 ft 292 kts 234°
2026-04-30 19:55 3.22706 -75.69827 26023 ft 292 kts 235°
2026-04-30 19:56 3.21572 -75.71515 26021 ft 293 kts 234°
2026-04-30 19:56 3.20432 -75.73204 26019 ft 292 kts 232°
2026-04-30 19:56 3.19145 -75.74762 26020 ft 291 kts 227°
2026-04-30 19:56 3.17821 -75.76293 26018 ft 291 kts 228°
2026-04-30 19:57 3.16506 -75.77826 26020 ft 291 kts 228°
2026-04-30 19:57 3.15193 -75.79366 26064 ft 291 kts 229°
2026-04-30 19:57 3.13882 -75.80900 26066 ft 290 kts 228°
2026-04-30 19:57 3.12587 -75.82410 26066 ft 290 kts 229°
2026-04-30 19:58 3.11278 -75.83939 26065 ft 289 kts 229°
2026-04-30 19:58 3.09968 -75.85470 26073 ft 289 kts 228°
2026-04-30 19:58 3.08659 -75.86999 26074 ft 290 kts 228°
2026-04-30 19:58 3.07350 -75.88527 26074 ft 290 kts 228°
2026-04-30 19:59 3.06039 -75.90059 26075 ft 290 kts 228°
2026-04-30 19:59 3.04727 -75.91591 26078 ft 290 kts 228°
2026-04-30 19:59 3.02106 -75.94652 26086 ft 290 kts 228°
2026-04-30 20:00 3.00795 -75.96183 26086 ft 290 kts 228°
2026-04-30 20:00 2.99484 -75.97713 26087 ft 290 kts 228°
2026-04-30 20:00 2.98174 -75.99243 26084 ft 289 kts 228°
2026-04-30 20:00 2.96865 -76.00772 26084 ft 290 kts 229°
2026-04-30 20:01 2.94245 -76.03831 26092 ft 289 kts 229°
2026-04-30 20:01 2.92936 -76.05360 26092 ft 289 kts 229°
2026-04-30 20:01 2.91627 -76.06887 26092 ft 289 kts 228°
2026-04-30 20:02 2.89030 -76.09919 26082 ft 289 kts 229°
2026-04-30 20:02 2.87720 -76.11448 26083 ft 289 kts 229°
2026-04-30 20:03 2.85102 -76.14504 26085 ft 290 kts 228°
2026-04-30 20:03 2.83791 -76.16035 26080 ft 289 kts 229°
2026-04-30 20:03 2.82482 -76.17562 26080 ft 289 kts 229°
2026-04-30 20:03 2.81173 -76.19090 26088 ft 289 kts 228°
2026-04-30 20:04 2.79866 -76.20615 26089 ft 289 kts 228°
2026-04-30 20:04 2.78559 -76.22140 26065 ft 289 kts 228°
2026-04-30 20:04 2.77251 -76.23666 26064 ft 289 kts 228°
2026-04-30 20:05 2.74642 -76.26712 26064 ft 288 kts 228°
2026-04-30 20:05 2.73337 -76.28234 26066 ft 289 kts 228°
2026-04-30 20:05 2.70723 -76.31284 26066 ft 289 kts 229°
2026-04-30 20:06 2.69416 -76.32809 26066 ft 289 kts 229°
2026-04-30 20:06 2.68109 -76.34333 26068 ft 289 kts 229°
2026-04-30 20:06 2.66804 -76.35857 26094 ft 289 kts 228°
2026-04-30 20:06 2.65497 -76.37381 26073 ft 289 kts 228°
2026-04-30 20:07 2.64190 -76.38906 26077 ft 289 kts 229°
2026-04-30 20:07 2.62882 -76.40432 26078 ft 289 kts 229°
2026-04-30 20:07 2.60268 -76.43481 26085 ft 289 kts 228°
2026-04-30 20:08 2.58962 -76.45003 26087 ft 289 kts 229°
2026-04-30 20:08 2.57655 -76.46528 26093 ft 289 kts 229°
2026-04-30 20:08 2.56347 -76.48054 26097 ft 289 kts 229°
2026-04-30 20:08 2.55041 -76.49577 26100 ft 289 kts 229°
2026-04-30 20:09 2.53733 -76.51103 26095 ft 289 kts 228°
2026-04-30 20:09 2.52423 -76.52630 26104 ft 289 kts 228°
2026-04-30 20:09 2.49804 -76.55684 26107 ft 289 kts 227°
2026-04-30 20:10 2.47193 -76.58729 26108 ft 288 kts 228°
2026-04-30 20:10 2.45904 -76.60232 26108 ft 288 kts 229°
2026-04-30 20:10 2.44631 -76.61774 26105 ft 287 kts 234°
2026-04-30 20:11 2.42388 -76.65072 26107 ft 287 kts 234°
2026-04-30 20:11 2.41257 -76.66721 26107 ft 287 kts 234°
2026-04-30 20:11 2.40125 -76.68368 26107 ft 287 kts 234°
2026-04-30 20:12 2.37866 -76.71667 26093 ft 288 kts 235°
2026-04-30 20:12 2.36736 -76.73318 26091 ft 288 kts 234°
2026-04-30 20:12 2.35603 -76.74969 26086 ft 288 kts 235°
2026-04-30 20:13 2.34472 -76.76620 26080 ft 288 kts 235°
2026-04-30 20:13 2.33340 -76.78274 26079 ft 288 kts 234°
2026-04-30 20:13 2.32208 -76.79924 26049 ft 288 kts 234°
2026-04-30 20:13 2.31077 -76.81575 26039 ft 288 kts 234°
2026-04-30 20:14 2.29945 -76.83228 26031 ft 288 kts 234°
2026-04-30 20:14 2.28813 -76.84879 26023 ft 288 kts 234°
2026-04-30 20:14 2.27682 -76.86530 26015 ft 288 kts 234°
2026-04-30 20:14 2.26552 -76.88179 25993 ft 287 kts 234°
2026-04-30 20:15 2.25422 -76.89828 25994 ft 288 kts 234°
2026-04-30 20:15 2.24292 -76.91477 25996 ft 287 kts 234°
2026-04-30 20:15 2.23163 -76.93124 25996 ft 287 kts 234°
2026-04-30 20:15 2.22034 -76.94771 25974 ft 288 kts 234°
2026-04-30 20:16 2.20904 -76.96420 25975 ft 287 kts 234°
2026-04-30 20:16 2.19775 -76.98067 25975 ft 287 kts 234°
2026-04-30 20:16 2.18644 -76.99717 25975 ft 287 kts 234°
2026-04-30 20:16 2.17514 -77.01365 25975 ft 287 kts 234°
2026-04-30 20:17 2.16384 -77.03013 25975 ft 287 kts 234°
2026-04-30 20:17 2.15256 -77.04660 25977 ft 287 kts 234°
2026-04-30 20:17 2.14125 -77.06309 25977 ft 288 kts 234°
2026-04-30 20:17 2.12994 -77.07959 25977 ft 288 kts 234°
2026-04-30 20:18 2.11850 -77.09626 25734 ft 297 kts 234°
2026-04-30 20:18 2.10661 -77.11361 25382 ft 307 kts 234°
2026-04-30 20:18 2.09442 -77.13139 25032 ft 310 kts 234°
2026-04-30 20:18 2.08225 -77.14916 24667 ft 308 kts 234°
2026-04-30 20:19 2.07016 -77.16679 24312 ft 307 kts 234°
2026-04-30 20:19 2.06215 -77.17846 24087 ft 307 kts 234°
2026-04-30 20:19 2.04615 -77.20180 23636 ft 308 kts 234°
2026-04-30 20:19 2.03401 -77.21949 23186 ft 310 kts 234°
2026-04-30 20:20 2.02176 -77.23735 22665 ft 313 kts 234°
2026-04-30 20:20 2.00939 -77.25540 22172 ft 315 kts 234°
2026-04-30 20:20 1.99696 -77.27352 21684 ft 317 kts 234°
2026-04-30 20:20 1.98456 -77.29162 21204 ft 312 kts 234°
2026-04-30 20:21 1.97245 -77.30927 20726 ft 304 kts 234°
2026-04-30 20:21 1.96065 -77.32645 20250 ft 296 kts 233°
2026-04-30 20:21 1.94763 -77.34190 19780 ft 286 kts 219°
2026-04-30 20:21 1.93179 -77.35332 19317 ft 277 kts 204°
2026-04-30 20:22 1.91424 -77.36038 18864 ft 268 kts 190°
2026-04-30 20:22 1.89615 -77.36303 18433 ft 259 kts 177°
2026-04-30 20:22 1.87849 -77.36160 17957 ft 251 kts 164°
2026-04-30 20:22 1.86210 -77.35650 17462 ft 244 kts 152°
2026-04-30 20:23 1.84764 -77.34830 16968 ft 236 kts 141°
2026-04-30 20:23 1.83545 -77.33755 16483 ft 232 kts 130°
2026-04-30 20:23 1.82583 -77.32475 15997 ft 229 kts 120°
2026-04-30 20:23 1.81903 -77.31047 15540 ft 226 kts 109°
2026-04-30 20:24 1.81520 -77.29529 15078 ft 225 kts 100°
2026-04-30 20:24 1.81250 -77.28010 14738 ft 220 kts 101°
2026-04-30 20:24 1.80972 -77.26523 14396 ft 216 kts 102°
2026-04-30 20:24 1.80701 -77.25052 14054 ft 214 kts 102°
2026-04-30 20:25 1.80171 -77.22153 13356 ft 211 kts 101°
2026-04-30 20:25 1.79908 -77.20715 12977 ft 210 kts 101°
2026-04-30 20:26 1.78893 -77.18556 12369 ft 211 kts 131°
2026-04-30 20:26 1.76290 -77.17270 11681 ft 217 kts 172°
2026-04-30 20:26 1.74782 -77.17423 11331 ft 221 kts 194°
2026-04-30 20:27 1.72023 -77.18813 10646 ft 223 kts 205°
2026-04-30 20:27 1.69293 -77.20276 10002 ft 220 kts 205°
2026-04-30 20:28 1.66773 -77.21628 9975 ft 194 kts 204°
2026-04-30 20:28 1.64415 -77.22885 9953 ft 205 kts 204°
2026-04-30 20:29 1.61724 -77.24317 10002 ft 230 kts 205°
2026-04-30 20:30 1.57382 -77.26652 9999 ft 240 kts 203°
2026-04-30 20:30 1.52942 -77.29027 9997 ft 240 kts 204°
2026-04-30 20:31 1.48361 -77.31328 9494 ft 243 kts 205°
2026-04-30 20:32 1.44173 -77.33424 8847 ft 207 kts 205°
2026-04-30 20:32 1.41834 -77.34597 8817 ft 172 kts 204°
2026-04-30 20:33 1.40799 -77.35115 8827 ft 162 kts 202°
2026-04-30 20:33 1.38711 -77.36156 8921 ft 179 kts 204°
2026-04-30 20:33 1.37514 -77.36523 8784 ft 180 kts 182°
2026-04-30 20:34 1.35307 -77.35958 8283 ft 153 kts 144°
2026-04-30 20:34 1.34073 -77.34402 7779 ft 141 kts 109°
2026-04-30 20:35 1.33861 -77.33459 7554 ft 134 kts 94°
2026-04-30 20:35 1.33920 -77.32521 7336 ft 139 kts 77°
2026-04-30 20:35 1.34836 -77.30894 7007 ft 135 kts 39°
2026-04-30 20:36 1.35567 -77.30321 6905 ft 135 kts 31°
2026-04-30 20:36 1.36405 -77.29904 6703 ft 133 kts 15°
2026-04-30 20:36 1.38108 -77.29505 6116 ft 115 kts 13°
2026-04-30 20:37 1.38850 -77.29313 5935 ft 105 kts 15°
2026-04-30 20:37 1.39452 -77.29155 5907 ft 57 kts 15°
2026-04-30 20:37 1.39569 -77.29123 5900 ft 9 kts 19°
2026-04-30 20:37 1.39600 -77.29085 5898 ft 0 kts 116°
2026-04-30 20:38 1.39598 -77.29082 5898 ft 2 kts 116°
2026-04-30 20:38 1.39587 -77.29050 5898 ft 4 kts 102°
2026-04-30 20:38 1.39587 -77.29047 5898 ft 0 kts 102°
2026-04-30 20:39 1.39621 -77.28997 5896 ft 6 kts 101°
2026-04-30 20:39 1.39618 -77.28993 5896 ft 0 kts 136°